Time,TemperatureF,DewpointF,PressureIn,WindDirection,WindDirectionDegrees,WindSpeedMPH,WindSpeedGustMPH,Humidity,HourlyPrecipIn,Conditions,Clouds,dailyrainin,SoftwareType,DateUTC
2013-05-23 00:00:00,74.4,61.0,29.83,SE,130,6.0,11.0,63,0.00,,,0.00,Wunderground v.1.15,2013-05-23 05:00:00,
2013-05-23 00:10:00,74.2,61.2,29.83,SE,136,6.0,11.0,64,0.00,,,0.00,Wunderground v.1.15,2013-05-23 05:10:00,
2013-05-23 00:20:00,73.9,61.8,29.83,SE,133,6.0,11.0,66,0.00,,,0.00,Wunderground v.1.15,2013-05-23 05:20:00,
2013-05-23 00:30:00,73.6,62.0,29.83,SE,128,6.0,11.0,67,0.00,,,0.00,Wunderground v.1.15,2013-05-23 05:30:00,
2013-05-23 00:40:00,73.2,62.0,29.83,SE,128,2.0,2.0,68,0.00,,,0.00,Wunderground v.1.15,2013-05-23 05:40:00,
2013-05-23 00:50:00,72.6,62.3,29.83,SE,129,2.0,2.0,70,0.00,,,0.00,Wunderground v.1.15,2013-05-23 05:50:00,
2013-05-23 01:00:00,72.1,62.6,29.83,SE,129,2.0,11.0,72,0.00,,,0.00,Wunderground v.1.15,2013-05-23 06:00:00,
2013-05-23 01:10:00,71.6,62.9,29.83,SE,129,2.0,2.0,74,0.00,,,0.00,Wunderground v.1.15,2013-05-23 06:10:00,
2013-05-23 01:20:00,71.2,62.9,29.83,SE,129,0.0,11.0,75,0.00,,,0.00,Wunderground v.1.15,2013-05-23 06:20:00,
2013-05-23 01:30:00,70.8,63.2,29.82,SE,129,0.0,11.0,77,0.00,,,0.00,Wunderground v.1.15,2013-05-23 06:30:00,
2013-05-23 01:40:00,70.8,63.6,29.82,SE,129,0.0,11.0,78,0.00,,,0.00,Wunderground v.1.15,2013-05-23 06:40:00,
2013-05-23 01:50:00,70.6,63.4,29.82,SE,129,0.0,11.0,78,0.00,,,0.00,Wunderground v.1.15,2013-05-23 06:50:00,
2013-05-23 02:00:00,70.4,63.9,29.82,SE,129,0.0,11.0,80,0.00,,,0.00,Wunderground v.1.15,2013-05-23 07:00:00,
2013-05-23 02:10:00,70.3,63.8,29.82,SE,129,0.0,11.0,80,0.00,,,0.00,Wunderground v.1.15,2013-05-23 07:10:00,
2013-05-23 02:20:00,70.2,64.1,29.82,SE,129,0.0,11.0,81,0.00,,,0.00,Wunderground v.1.15,2013-05-23 07:20:00,
2013-05-23 02:30:00,69.9,64.2,29.81,SE,129,2.0,11.0,82,0.00,,,0.00,Wunderground v.1.15,2013-05-23 07:30:00,
2013-05-23 02:40:00,69.8,64.4,29.81,SE,129,3.0,3.0,83,0.00,,,0.00,Wunderground v.1.15,2013-05-23 07:40:00,
2013-05-23 02:50:00,70.0,64.9,29.81,SE,132,4.0,11.0,84,0.00,,,0.00,Wunderground v.1.15,2013-05-23 07:50:00,
2013-05-23 03:00:00,70.3,65.2,29.81,SE,134,4.0,4.0,84,0.00,,,0.00,Wunderground v.1.15,2013-05-23 08:00:00,
2013-05-23 03:10:00,70.4,65.3,29.80,SE,134,4.0,11.0,84,0.00,,,0.00,Wunderground v.1.15,2013-05-23 08:10:00,
2013-05-23 03:20:00,70.3,65.2,29.81,SE,134,3.0,3.0,84,0.00,,,0.00,Wunderground v.1.15,2013-05-23 08:20:00,
2013-05-23 03:30:00,70.1,65.4,29.80,SE,134,3.0,3.0,85,0.00,,,0.00,Wunderground v.1.15,2013-05-23 08:30:00,
2013-05-23 03:40:00,69.8,65.4,29.80,SE,134,3.0,3.0,86,0.00,,,0.00,Wunderground v.1.15,2013-05-23 08:40:00,
2013-05-23 03:50:00,69.5,65.5,29.80,SE,134,3.0,3.0,87,0.00,,,0.00,Wunderground v.1.15,2013-05-23 08:50:00,
2013-05-23 04:00:00,69.2,65.2,29.80,SE,134,3.0,3.0,87,0.00,,,0.00,Wunderground v.1.15,2013-05-23 09:00:00,
2013-05-23 04:10:00,69.1,65.4,29.80,SE,134,2.0,11.0,88,0.00,,,0.00,Wunderground v.1.15,2013-05-23 09:10:00,
2013-05-23 04:20:00,69.0,65.6,29.80,SE,134,3.0,3.0,89,0.00,,,0.00,Wunderground v.1.15,2013-05-23 09:20:00,
2013-05-23 04:30:00,69.1,65.7,29.80,SE,134,2.0,11.0,89,0.00,,,0.00,Wunderground v.1.15,2013-05-23 09:30:00,
2013-05-23 04:40:00,69.0,65.9,29.80,SE,134,2.0,11.0,90,0.00,,,0.00,Wunderground v.1.15,2013-05-23 09:40:00,
2013-05-23 04:50:00,69.1,66.4,29.81,SE,134,1.0,1.0,91,0.00,,,0.00,Wunderground v.1.15,2013-05-23 09:50:00,
2013-05-23 05:00:00,69.0,66.3,29.80,SE,134,0.0,11.0,91,0.00,,,0.00,Wunderground v.1.15,2013-05-23 10:00:00,
2013-05-23 05:10:00,68.9,66.2,29.81,SE,134,1.0,11.0,91,0.00,,,0.00,Wunderground v.1.15,2013-05-23 10:10:00,
2013-05-23 05:20:00,68.8,66.4,29.81,SE,134,1.0,1.0,92,0.00,,,0.00,Wunderground v.1.15,2013-05-23 10:20:00,
2013-05-23 05:30:00,68.6,66.2,29.81,SE,134,0.0,11.0,92,0.00,,,0.00,Wunderground v.1.15,2013-05-23 10:30:00,
2013-05-23 05:40:00,68.5,66.1,29.81,SE,134,0.0,11.0,92,0.00,,,0.00,Wunderground v.1.15,2013-05-23 10:40:00,
2013-05-23 05:50:00,68.4,66.3,29.81,SE,134,0.0,11.0,93,0.00,,,0.00,Wunderground v.1.15,2013-05-23 10:50:00,
2013-05-23 06:00:00,68.2,66.1,29.82,SE,134,0.0,11.0,93,0.00,,,0.00,Wunderground v.1.15,2013-05-23 11:00:00,
2013-05-23 06:10:00,68.0,66.2,29.82,SE,134,0.0,11.0,94,0.00,,,0.00,Wunderground v.1.15,2013-05-23 11:10:00,
2013-05-23 06:20:00,68.1,66.3,29.82,SE,134,0.0,11.0,94,0.00,,,0.00,Wunderground v.1.15,2013-05-23 11:20:00,
2013-05-23 06:30:00,68.0,66.2,29.82,SE,134,0.0,11.0,94,0.00,,,0.00,Wunderground v.1.15,2013-05-23 11:30:00,
2013-05-23 06:40:00,68.1,66.6,29.82,SE,134,0.0,11.0,95,0.00,,,0.00,Wunderground v.1.15,2013-05-23 11:40:00,
2013-05-23 06:50:00,68.2,66.7,29.82,SE,134,0.0,11.0,95,0.00,,,0.00,Wunderground v.1.15,2013-05-23 11:50:00,
2013-05-23 07:00:00,68.4,66.9,29.83,SE,134,0.0,11.0,95,0.00,,,0.00,Wunderground v.1.15,2013-05-23 12:00:00,
2013-05-23 07:10:00,68.7,67.2,29.83,SE,134,0.0,11.0,95,0.00,,,0.00,Wunderground v.1.15,2013-05-23 12:10:00,
2013-05-23 07:20:00,68.9,67.4,29.84,SE,134,0.0,11.0,95,0.00,,,0.00,Wunderground v.1.15,2013-05-23 12:20:00,
2013-05-23 07:30:00,68.8,67.0,29.84,SE,134,0.0,11.0,94,0.00,,,0.00,Wunderground v.1.15,2013-05-23 12:30:00,
2013-05-23 07:40:00,68.4,66.6,29.84,SE,134,0.0,11.0,94,0.00,,,0.00,Wunderground v.1.15,2013-05-23 12:40:00,
2013-05-23 07:50:00,69.0,67.5,29.84,SE,134,0.0,11.0,95,0.00,,,0.00,Wunderground v.1.15,2013-05-23 12:50:00,
2013-05-23 08:00:00,70.0,68.5,29.85,SE,134,0.0,11.0,95,0.00,,,0.00,Wunderground v.1.15,2013-05-23 13:00:00,
2013-05-23 08:10:00,71.3,69.5,29.85,SE,134,0.0,11.0,94,0.00,,,0.00,Wunderground v.1.15,2013-05-23 13:10:00,
2013-05-23 08:20:00,72.0,69.5,29.85,SE,134,4.0,11.0,92,0.00,,,0.00,Wunderground v.1.15,2013-05-23 13:20:00,
2013-05-23 08:30:00,72.5,69.7,29.85,SE,146,6.0,6.0,91,0.00,,,0.00,Wunderground v.1.15,2013-05-23 13:30:00,
2013-05-23 08:40:00,72.7,69.6,29.85,SE,146,7.0,11.0,90,0.00,,,0.00,Wunderground v.1.15,2013-05-23 13:40:00,
2013-05-23 08:50:00,73.5,70.1,29.86,SSE,153,7.0,11.0,89,0.00,,,0.00,Wunderground v.1.15,2013-05-23 13:50:00,
2013-05-23 09:00:00,74.1,70.3,29.86,SSE,160,9.0,11.0,88,0.00,,,0.00,Wunderground v.1.15,2013-05-23 14:00:00,
2013-05-23 09:10:00,74.4,69.9,29.86,SSE,156,9.0,12.0,86,0.00,,,0.00,Wunderground v.1.15,2013-05-23 14:10:00,
2013-05-23 09:20:00,75.3,70.5,29.87,South,183,10.0,10.0,85,0.00,,,0.00,Wunderground v.1.15,2013-05-23 14:20:00,
2013-05-23 09:30:00,75.8,70.3,29.87,South,174,10.0,11.0,83,0.00,,,0.00,Wunderground v.1.15,2013-05-23 14:30:00,
2013-05-23 09:40:00,76.4,70.9,29.87,South,169,10.0,10.0,83,0.00,,,0.00,Wunderground v.1.15,2013-05-23 14:40:00,
2013-05-23 09:50:00,77.0,70.7,29.88,South,171,10.0,10.0,81,0.00,,,0.00,Wunderground v.1.15,2013-05-23 14:50:00,
2013-05-23 10:00:00,78.2,71.2,29.88,South,174,10.0,11.0,79,0.00,,,0.00,Wunderground v.1.15,2013-05-23 15:00:00,
2013-05-23 10:10:00,79.1,71.3,29.88,South,171,12.0,15.0,77,0.00,,,0.00,Wunderground v.1.15,2013-05-23 15:10:00,
2013-05-23 10:20:00,79.4,71.2,29.88,South,177,12.0,12.0,76,0.00,,,0.00,Wunderground v.1.15,2013-05-23 15:20:00,
2013-05-23 10:30:00,79.1,71.3,29.88,South,169,11.0,14.0,77,0.00,,,0.00,Wunderground v.1.15,2013-05-23 15:30:00,
2013-05-23 10:40:00,79.6,71.4,29.88,SSW,195,8.0,14.0,76,0.00,,,0.00,Wunderground v.1.15,2013-05-23 15:40:00,
2013-05-23 10:50:00,79.7,70.7,29.88,South,173,9.0,11.0,74,0.00,,,0.00,Wunderground v.1.15,2013-05-23 15:50:00,
2013-05-23 11:00:00,79.8,71.2,29.88,South,175,10.0,14.0,75,0.00,,,0.00,Wunderground v.1.15,2013-05-23 16:00:00,
2013-05-23 11:10:00,79.8,70.8,29.88,South,174,10.0,10.0,74,0.00,,,0.00,Wunderground v.1.15,2013-05-23 16:10:00,
2013-05-23 11:20:00,80.2,70.8,29.88,South,173,8.0,8.0,73,0.00,,,0.00,Wunderground v.1.15,2013-05-23 16:20:00,
2013-05-23 11:30:00,80.5,71.0,29.88,South,177,10.0,14.0,73,0.00,,,0.00,Wunderground v.1.15,2013-05-23 16:30:00,
2013-05-23 11:40:00,81.2,71.7,29.88,SSE,151,12.0,14.0,73,0.00,,,0.00,Wunderground v.1.15,2013-05-23 16:40:00,
2013-05-23 11:50:00,81.7,71.8,29.88,South,171,12.0,12.0,72,0.00,,,0.00,Wunderground v.1.15,2013-05-23 16:50:00,
2013-05-23 12:00:00,82.9,72.1,29.88,South,174,10.0,11.0,70,0.00,,,0.00,Wunderground v.1.15,2013-05-23 17:00:00,
2013-05-23 12:10:00,83.3,72.5,29.88,SSE,167,12.0,13.0,70,0.00,,,0.00,Wunderground v.1.15,2013-05-23 17:10:00,
2013-05-23 12:20:00,83.4,72.2,29.88,South,178,11.0,11.0,69,0.00,,,0.00,Wunderground v.1.15,2013-05-23 17:20:00,
2013-05-23 12:30:00,83.9,72.6,29.87,South,180,13.0,13.0,69,0.00,,,0.00,Wunderground v.1.15,2013-05-23 17:30:00,
2013-05-23 12:40:00,84.5,72.3,29.88,SSW,192,13.0,13.0,67,0.00,,,0.00,Wunderground v.1.15,2013-05-23 17:40:00,
2013-05-23 12:50:00,84.7,72.1,29.87,South,174,10.0,14.0,66,0.00,,,0.00,Wunderground v.1.15,2013-05-23 17:50:00,
2013-05-23 13:00:00,84.6,72.4,29.87,SSE,167,12.0,12.0,67,0.00,,,0.00,Wunderground v.1.15,2013-05-23 18:00:00,
2013-05-23 13:10:00,85.0,71.5,29.87,SSE,167,10.0,11.0,64,0.00,,,0.00,Wunderground v.1.15,2013-05-23 18:10:00,
2013-05-23 13:20:00,85.3,71.7,29.86,SSE,159,11.0,20.0,64,0.00,,,0.00,Wunderground v.1.15,2013-05-23 18:20:00,
2013-05-23 13:30:00,85.3,71.7,29.87,South,173,12.0,12.0,64,0.00,,,0.00,Wunderground v.1.15,2013-05-23 18:30:00,
2013-05-23 13:40:00,85.5,71.5,29.86,SSE,168,11.0,12.0,63,0.00,,,0.00,Wunderground v.1.15,2013-05-23 18:40:00,
2013-05-23 13:50:00,85.9,72.3,29.86,SSW,199,11.0,11.0,64,0.00,,,0.00,Wunderground v.1.15,2013-05-23 18:50:00,
2013-05-23 14:00:00,85.7,71.7,29.87,SE,136,8.0,11.0,63,0.00,,,0.00,Wunderground v.1.15,2013-05-23 19:00:00,
2013-05-23 14:10:00,85.5,71.5,29.87,SSE,152,9.0,14.0,63,0.00,,,0.00,Wunderground v.1.15,2013-05-23 19:10:00,
2013-05-23 14:20:00,85.7,71.2,29.87,SSE,159,12.0,14.0,62,0.00,,,0.00,Wunderground v.1.15,2013-05-23 19:20:00,
2013-05-23 14:40:00,87.1,71.5,29.87,ESE,115,10.0,13.0,60,0.00,,,0.00,Wunderground v.1.15,2013-05-23 19:40:00,
2013-05-23 14:50:00,86.3,70.8,29.87,SE,140,12.0,14.0,60,0.00,,,0.00,Wunderground v.1.15,2013-05-23 19:50:00,
2013-05-23 15:00:00,86.1,71.1,29.86,SE,142,11.0,12.0,61,0.00,,,0.00,Wunderground v.1.15,2013-05-23 20:00:00,
2013-05-23 15:10:00,86.5,71.0,29.86,SE,126,11.0,11.0,60,0.00,,,0.00,Wunderground v.1.15,2013-05-23 20:10:00,
2013-05-23 15:20:00,87.3,70.7,29.85,SE,146,10.0,10.0,58,0.00,,,0.00,Wunderground v.1.15,2013-05-23 20:20:00,
2013-05-23 15:30:00,87.5,72.9,29.85,SSE,163,11.0,11.0,62,0.00,,,0.00,Wunderground v.1.15,2013-05-23 20:30:00,
2013-05-23 15:40:00,88.5,71.3,29.84,South,178,12.0,13.0,57,0.00,,,0.00,Wunderground v.1.15,2013-05-23 20:40:00,
2013-05-23 15:50:00,88.6,70.9,29.83,SE,136,13.0,13.0,56,0.00,,,0.00,Wunderground v.1.15,2013-05-23 20:50:00,
2013-05-23 16:00:00,87.9,71.3,29.83,SSE,148,10.0,15.0,58,0.00,,,0.00,Wunderground v.1.15,2013-05-23 21:00:00,
2013-05-23 16:10:00,88.3,71.6,29.82,SSE,159,12.0,12.0,58,0.00,,,0.00,Wunderground v.1.15,2013-05-23 21:10:00,
2013-05-23 16:20:00,88.6,71.4,29.81,SSE,159,13.0,16.0,57,0.00,,,0.00,Wunderground v.1.15,2013-05-23 21:20:00,
2013-05-23 16:30:00,88.0,70.3,29.81,South,171,13.0,13.0,56,0.00,,,0.00,Wunderground v.1.15,2013-05-23 21:30:00,
2013-05-23 16:40:00,87.7,71.1,29.80,SSE,152,14.0,16.0,58,0.00,,,0.00,Wunderground v.1.15,2013-05-23 21:40:00,
2013-05-23 16:50:00,87.9,70.8,29.80,SSE,167,14.0,14.0,57,0.00,,,0.00,Wunderground v.1.15,2013-05-23 21:50:00,
2013-05-23 17:00:00,88.2,70.5,29.79,SSE,148,13.0,14.0,56,0.00,,,0.00,Wunderground v.1.15,2013-05-23 22:00:00,
2013-05-23 17:10:00,87.4,70.8,29.79,SE,136,16.0,16.0,58,0.00,,,0.00,Wunderground v.1.15,2013-05-23 22:10:00,
2013-05-23 17:20:00,87.4,70.8,29.79,SE,132,16.0,22.0,58,0.00,,,0.00,Wunderground v.1.15,2013-05-23 22:20:00,
2013-05-23 17:30:00,87.4,70.3,29.79,South,174,17.0,17.0,57,0.00,,,0.00,Wunderground v.1.15,2013-05-23 22:30:00,
2013-05-23 17:40:00,86.6,69.6,29.79,SSE,156,16.0,16.0,57,0.00,,,0.00,Wunderground v.1.15,2013-05-23 22:40:00,
2013-05-23 17:50:00,86.0,70.5,29.79,SSE,155,14.0,14.0,60,0.00,,,0.00,Wunderground v.1.15,2013-05-23 22:50:00,
2013-05-23 18:00:00,85.6,69.6,29.80,South,169,13.0,13.0,59,0.00,,,0.00,Wunderground v.1.15,2013-05-23 23:00:00,
2013-05-23 18:10:00,85.3,69.8,29.81,SE,144,13.0,18.0,60,0.00,,,0.00,Wunderground v.1.15,2013-05-23 23:10:00,
2013-05-23 18:20:00,85.6,70.1,29.80,SE,144,14.0,14.0,60,0.00,,,0.00,Wunderground v.1.15,2013-05-23 23:20:00,
2013-05-23 18:30:00,85.3,70.3,29.80,SE,142,14.0,18.0,61,0.00,,,0.00,Wunderground v.1.15,2013-05-23 23:30:00,
2013-05-23 18:40:00,85.1,69.7,29.80,SE,144,14.0,14.0,60,0.00,,,0.00,Wunderground v.1.15,2013-05-23 23:40:00,
2013-05-23 18:50:00,84.3,69.4,29.79,SSE,153,15.0,16.0,61,0.00,,,0.00,Wunderground v.1.15,2013-05-23 23:50:00,
2013-05-23 19:00:00,83.8,69.9,29.80,SE,125,13.0,15.0,63,0.00,,,0.00,Wunderground v.1.15,2013-05-24 00:00:00,
2013-05-23 19:10:00,83.5,69.6,29.79,SE,124,11.0,14.0,63,0.00,,,0.00,Wunderground v.1.15,2013-05-24 00:10:00,
2013-05-23 19:20:00,83.3,69.4,29.80,SE,129,13.0,13.0,63,0.00,,,0.00,Wunderground v.1.15,2013-05-24 00:20:00,
2013-05-23 19:30:00,83.0,69.6,29.81,ESE,121,10.0,15.0,64,0.00,,,0.00,Wunderground v.1.15,2013-05-24 00:30:00,
2013-05-23 19:40:00,82.9,69.5,29.82,SE,126,12.0,12.0,64,0.00,,,0.00,Wunderground v.1.15,2013-05-24 00:40:00,
2013-05-23 19:50:00,82.7,69.3,29.83,ESE,120,7.0,11.0,64,0.00,,,0.00,Wunderground v.1.15,2013-05-24 00:50:00,
2013-05-23 20:00:00,82.4,69.4,29.83,SE,128,6.0,6.0,65,0.00,,,0.00,Wunderground v.1.15,2013-05-24 01:00:00,
2013-05-23 20:10:00,81.9,69.4,29.84,SE,140,6.0,6.0,66,0.00,,,0.00,Wunderground v.1.15,2013-05-24 01:10:00,
2013-05-23 20:20:00,81.8,69.8,29.85,ESE,117,4.0,11.0,67,0.00,,,0.00,Wunderground v.1.15,2013-05-24 01:20:00,
2013-05-23 20:30:00,81.4,69.4,29.87,ESE,116,5.0,11.0,67,0.00,,,0.00,Wunderground v.1.15,2013-05-24 01:30:00,
2013-05-23 20:40:00,81.1,69.5,29.89,ESE,115,5.0,11.0,68,0.00,,,0.00,Wunderground v.1.15,2013-05-24 01:40:00,
2013-05-23 20:50:00,80.8,69.7,29.90,ESE,112,4.0,11.0,69,0.00,,,0.00,Wunderground v.1.15,2013-05-24 01:50:00,
2013-05-23 21:00:00,80.3,69.6,29.92,ENE,67,5.0,11.0,70,0.00,,,0.00,Wunderground v.1.15,2013-05-24 02:00:00,
2013-05-23 21:10:00,80.2,69.5,29.93,NE,53,6.0,11.0,70,0.00,,,0.00,Wunderground v.1.15,2013-05-24 02:10:00,
2013-05-23 21:20:00,80.5,69.8,29.94,ENE,57,8.0,11.0,70,0.00,,,0.00,Wunderground v.1.15,2013-05-24 02:20:00,
2013-05-23 21:30:00,80.6,70.3,29.94,NE,51,10.0,14.0,71,0.00,,,0.00,Wunderground v.1.15,2013-05-24 02:30:00,
2013-05-23 21:40:00,80.4,70.9,29.94,NE,49,14.0,14.0,73,0.00,,,0.00,Wunderground v.1.15,2013-05-24 02:40:00,
2013-05-23 21:50:00,80.0,71.4,29.95,ENE,62,15.0,15.0,75,0.00,,,0.00,Wunderground v.1.15,2013-05-24 02:50:00,
2013-05-23 22:00:00,79.6,71.4,29.96,ENE,59,15.0,18.0,76,0.00,,,0.00,Wunderground v.1.15,2013-05-24 03:00:00,
2013-05-23 22:10:00,79.3,71.1,29.96,NE,56,12.0,12.0,76,0.00,,,0.00,Wunderground v.1.15,2013-05-24 03:10:00,
2013-05-23 22:20:00,79.0,71.2,29.96,ENE,70,12.0,12.0,77,0.00,,,0.00,Wunderground v.1.15,2013-05-24 03:20:00,
2013-05-23 22:30:00,78.7,71.3,29.95,ENE,66,11.0,11.0,78,0.00,,,0.00,Wunderground v.1.15,2013-05-24 03:30:00,
2013-05-23 22:40:00,78.4,71.3,29.95,ENE,76,13.0,19.0,79,0.00,,,0.00,Wunderground v.1.15,2013-05-24 03:40:00,
2013-05-23 22:50:00,78.2,71.2,29.98,NE,55,13.0,13.0,79,0.00,,,0.00,Wunderground v.1.15,2013-05-24 03:50:00,
2013-05-23 23:00:00,77.9,70.9,29.97,ENE,64,14.0,14.0,79,0.00,,,0.00,Wunderground v.1.15,2013-05-24 04:00:00,
2013-05-23 23:10:00,77.8,71.1,29.98,ENE,59,14.0,14.0,80,0.00,,,0.00,Wunderground v.1.15,2013-05-24 04:10:00,
2013-05-23 23:20:00,77.7,71.0,29.97,NE,55,13.0,13.0,80,0.00,,,0.00,Wunderground v.1.15,2013-05-24 04:20:00,
2013-05-23 23:30:00,77.6,70.9,29.97,ENE,59,13.0,13.0,80,0.00,,,0.00,Wunderground v.1.15,2013-05-24 04:30:00,
2013-05-23 23:40:00,77.5,70.8,29.96,ENE,58,12.0,12.0,80,0.00,,,0.00,Wunderground v.1.15,2013-05-24 04:40:00,
2013-05-23 23:50:00,77.4,70.7,29.95,NE,50,10.0,12.0,80,0.00,,,0.00,Wunderground v.1.15,2013-05-24 04:50:00,